EW5738 Weather Reports


Display with metric or nautical units.
time (UTC)temp
F
wind
direction
speed
MPH
gust
MPH
rain 1hr
in
rain 24hr
in
rain mn
in
humidity
%
barometer
mb
20260507163019 58 262 2.0 7.0 0.00 0.00 0.00 60 1018.3
20260507161515 58 276 4.0 8.0 0.00 0.00 0.00 60 1018.3
20260507160014 58 305 1.0 7.0 0.00 0.00 0.00 60 1018.4
20260507154512 59 190 3.0 11.0 0.00 0.00 0.00 60 1018.3
20260507153010 59 314 4.0 12.0 0.00 0.00 0.00 62 1018.1
20260507151507 59 283 5.0 10.0 0.00 0.00 0.00 61 1018.1
20260507150003 60 274 5.0 14.0 0.00 0.00 0.00 60 1018.0
20260507144603 61 296 5.0 12.0 0.00 0.00 0.00 58 1018.0
20260507144501 61 272 6.0 13.0 0.00 0.00 0.00 58 1018.1
20260507143110 61 281 8.0 14.0 0.00 0.00 0.00 57 1018.1
20260507141633 61 284 7.0 12.0 0.00 0.00 0.00 57 1018.3
20260507140050 62 240 3.0 10.0 0.00 0.00 0.00 55 1018.3
20260507134549 62 288 4.0 14.0 0.00 0.00 0.00 55 1018.2
20260507133046 63 314 3.0 12.0 0.00 0.00 0.00 54 1018.5
20260507131544 63 290 3.0 10.0 0.00 0.00 0.00 54 1018.4
20260507130040 64 243 6.0 14.0 0.00 0.00 0.00 53 1018.0
20260507124537 64 295 3.0 20.0 0.00 0.00 0.00 51 1018.2
20260507123040 64 238 6.0 13.0 0.00 0.00 0.00 51 1018.0
20260507121533 65 304 5.0 20.0 0.00 0.00 0.00 50 1018.1
20260507120041 65 295 4.0 9.0 0.00 0.00 0.00 50 1018.1
20260507114529 65 274 3.0 16.0 0.00 0.00 0.00 48 1017.5
20260507113039 65 295 4.0 10.0 0.00 0.00 0.00 48 1017.6
20260507111527 66 252 3.0 7.0 0.00 0.00 0.00 48 1017.6
20260507110030 67 295 1.0 15.0 0.00 0.00 0.00 47 1017.5
20260507104525 67 293 3.0 9.0 0.00 0.00 0.00 47 1017.3
20260507103024 67 325 4.0 9.0 0.00 0.00 0.00 47 1017.1
20260507101624 68 286 3.0 13.0 0.00 0.00 0.00 46 1017.1
20260507100030 68 259 5.0 9.0 0.00 0.00 0.00 46 1016.8
20260507094520 69 312 3.0 11.0 0.00 0.00 0.00 45 1016.8
20260507093019 69 231 3.0 7.0 0.00 0.00 0.00 44 1016.7
20260507091522 69 253 1.0 6.0 0.00 0.00 0.00 46 1016.6
20260507090018 70 28 2.0 6.0 0.00 0.00 0.00 45 1016.3
20260507084517 71 252 3.0 9.0 0.00 0.00 0.00 43 1016.2
20260507083016 71 271 3.0 11.0 0.00 0.00 0.00 42 1015.7
20260507081516 71 283 3.0 12.0 0.00 0.00 0.00 42 1015.5
20260507080015 72 288 4.0 11.0 0.00 0.00 0.00 41 1015.3
20260507074526 72 277 4.0 13.0 0.00 0.00 0.00 40 1015.1
20260507073013 73 51 6.0 12.0 0.00 0.00 0.00 41 1015.0
20260507071513 73 284 7.0 13.0 0.00 0.00 0.00 41 1014.8
20260507070013 73 169 2.0 9.0 0.00 0.00 0.00 45 1014.6
20260507064510 74 279 2.0 6.0 0.00 0.00 0.00 44 1014.4
20260507063009 74 257 4.0 11.0 0.00 0.00 0.00 43 1014.4
20260507061510 74 286 6.0 10.0 0.00 0.00 0.00 44 1014.3
20260507060007 75 28 3.0 12.0 0.00 0.00 0.00 45 1014.4
20260507054506 74 230 3.0 9.0 0.00 0.00 0.00 47 1014.4
20260507053005 75 318 5.0 12.0 0.00 0.00 0.00 49 1014.2
20260507051502 75 274 3.0 8.0 0.00 0.00 0.00 52 1014.2
20260507044601 75 252 1.0 10.0 0.00 0.00 0.00 57 1014.1
20260507043058 75 250 5.0 14.0 0.00 0.00 0.00 55 1014.3
20260507041601 75 213 4.0 17.0 0.00 0.00 0.00 57 1014.4
20260507040104 76 283 6.0 13.0 0.00 0.00 0.00 56 1014.5
20260507034610 75 293 7.0 15.0 0.00 0.00 0.00 58 1014.4
20260507033104 76 240 4.0 10.0 0.00 0.00 0.00 59 1014.4
20260507031549 75 164 1.0 12.0 0.00 0.00 0.00 58 1014.6
20260507030047 76 281 8.0 23.0 0.00 0.00 0.00 58 1014.8
20260507024553 77 300 5.0 9.0 0.00 0.00 0.00 60 1014.8
20260507023042 76 309 6.0 14.0 0.00 0.00 0.00 64 1015.0
20260507021539 76 348 7.0 18.0 0.00 0.00 0.00 62 1015.2
20260507020135 76 283 8.0 16.0 0.00 0.00 0.00 64 1015.6
20260507014532 76 279 7.0 17.0 0.00 0.00 0.00 69 1015.8
20260507013029 76 305 7.0 20.0 0.00 0.00 0.00 70 1016.0
20260507011526 75 304 5.0 11.0 0.00 0.00 0.00 73 1016.3
20260507010030 74 293 3.0 13.0 0.00 0.00 0.00 76 1016.5
20260507004516 73 288 8.0 15.0 0.00 0.00 0.00 80 1016.5
20260507003013 71 303 3.0 13.0 0.00 0.00 0.00 82 1016.9
20260507001511 71 288 4.0 7.0 0.00 0.00 0.00 83 1017.1
20260507000009 70 322 1.0 8.0 0.00 0.00 0.00 84 1017.4
20260506234508 70 305 4.0 8.0 0.00 0.00 0.00 85 1017.6
20260506233003 69 288 4.0 9.0 0.00 0.00 0.00 87 1017.7
20260506231600 68 255 3.0 9.0 0.00 0.00 0.00 89 1017.7
20260506230058 68 312 6.0 17.0 0.00 0.00 0.00 90 1017.8
20260506224611 67 288 6.0 12.0 0.00 0.00 0.00 92 1017.6
20260506223058 67 303 7.0 15.0 0.00 0.00 0.00 93 1017.7
20260506221550 66 311 5.0 11.0 0.00 0.00 0.00 94 1017.4
20260506214550 65 223 1.0 2.0 0.00 0.00 0.00 93 1017.3
20260506213045 65 269 0.0 2.0 0.00 0.00 0.00 93 1017.3
20260506211551 64 160 1.0 2.0 0.00 0.00 0.00 93 1017.1
20260506210041 64 178 1.0 3.0 0.00 0.00 0.00 92 1017.0
20260506204539 64 178 1.0 3.0 0.00 0.00 0.00 92 1016.9
20260506203038 64 178 0.0 3.0 0.00 0.00 0.00 92 1016.9
20260506201536 64 300 2.0 4.0 0.00 0.00 0.00 92 1017.0
20260506200036 64 284 3.0 7.0 0.00 0.00 0.00 92 1016.7
20260506194538 64 302 2.0 5.0 0.00 0.00 0.00 91 1016.6
20260506193033 64 302 0.0 2.0 0.00 0.00 0.00 91 1016.3
20260506191531 64 142 1.0 2.0 0.00 0.00 0.00 91 1016.1
20260506190030 64 190 1.0 3.0 0.00 0.00 0.00 91 1016.1
20260506184531 64 46 0.0 2.0 0.00 0.00 0.00 91 1016.1
20260506183029 64 279 2.0 4.0 0.00 0.00 0.00 91 1016.3
20260506181526 64 276 3.0 6.0 0.00 0.00 0.00 91 1016.3
20260506180024 64 295 2.0 5.0 0.00 0.00 0.00 90 1016.3
20260506174523 65 295 0.0 2.0 0.00 0.00 0.00 90 1016.3
20260506173024 65 178 0.0 2.0 0.00 0.00 0.00 90 1016.4
20260506171525 65 340 1.0 3.0 0.00 0.00 0.00 90 1016.5
20260506170019 65 324 0.0 3.0 0.00 0.00 0.00 90 1016.6
20260506164520 65 157 0.0 2.0 0.00 0.00 0.00 90 1016.7